Wind_Speed
24 23 30 31 26 27 27 21 27 26 26 31 33 35 40 40 40 46 49 51 53 54 54 56 60 62 62 62 64 68 69 73 71 66 64 67 71 73 79 86 92 87 78 71
25 24 32 28 27 25 23 23 26 28 28 34 36 37 40 44 47 49 53 53 56 58 58 60 64 65 65 62 68 71 74 72 69 65 67 69 74 78 85 89 85 70 65 63
25 27 30 28 28 26 30 31 25 25 35 33 39 42 45 42 46 50 53 53 55 58 56 62 66 70 64 67 73 74 73 72 67 67 70 73 78 82 87 86 68 61 60 60
32 31 27 27 30 32 36 33 25 30 37 37 40 39 39 42 47 50 52 52 60 62 63 67 68 69 67 72 75 76 75 70 66 66 72 76 81 87 88 75 62 61 61 62
31 33 24 27 29 30 35 35 32 33 36 40 38 38 40 46 49 51 53 56 62 64 68 69 69 68 71 72 76 76 73 66 64 68 71 79 83 83 82 65 60 63 64 66
32 34 39 39 35 32 27 30 34 39 41 40 41 40 44 48 51 54 55 61 63 66 68 68 71 72 71 75 79 77 69 64 66 69 73 80 83 81 72 59 61 66 68 70
40 36 39 40 40 40 33 37 39 39 41 40 41 44 50 52 53 56 59 63 67 68 69 70 74 72 75 81 77 72 65 65 67 71 75 81 78 81 71 62 67 69 70 73
36 43 40 40 42 38 35 41 44 43 45 41 46 49 48 54 58 62 64 65 71 72 73 75 76 76 79 80 74 70 67 69 70 73 76 80 77 82 72 65 69 70 74 78
38 44 47 45 43 38 37 41 42 41 39 42 47 54 58 61 62 62 65 70 72 72 73 74 77 77 81 78 73 71 69 71 72 75 75 74 74 80 72 67 69 73 79 77
41 39 39 39 39 39 40 45 48 50 46 44 48 51 58 60 64 66 70 72 73 75 74 78 79 82 82 76 73 72 71 70 72 74 75 74 74 80 69 67 70 76 80 73
43 40 35 40 40 43 44 46 48 48 50 47 52 56 60 67 70 71 74 73 77 75 78 81 83 85 82 84 80 77 73 72 72 74 74 76 76 80 67 67 72 77 80 67
42 38 36 35 34 36 42 49 53 54 55 58 61 61 66 70 76 74 71 76 76 77 83 87 88 86 84 84 83 78 75 75 74 71 73 75 75 79 65 68 73 75 77 62
39 37 38 42 46 49 52 51 53 55 55 59 64 67 71 73 74 72 72 74 79 85 87 90 89 88 87 82 82 75 69 67 68 68 71 69 71 72 64 68 71 75 74 57
35 40 39 41 42 44 49 53 55 54 58 61 67 66 68 70 71 72 74 80 83 87 89 91 92 86 82 78 76 68 68 69 67 68 67 69 72 64 63 66 70 73 71 52
35 38 40 40 44 51 54 50 54 59 61 63 63 64 67 69 70 75 79 82 86 88 91 93 87 84 82 79 75 71 69 67 67 64 63 66 67 59 64 65 68 72 67 47
34 38 44 51 52 50 50 54 58 59 58 59 64 62 68 68 73 77 82 85 86 90 87 88 86 87 82 82 76 72 69 66 63 60 61 64 56 59 63 63 67 70 61 42
47 49 49 51 52 55 56 56 54 55 58 61 63 65 66 68 75 79 82 86 85 85 86 87 88 88 88 88 76 68 63 56 53 52 57 54 53 58 61 63 68 66 54 37
41 43 45 50 54 57 56 52 51 53 56 60 64 63 64 71 75 81 83 81 81 82 85 90 90 91 87 74 62 53 48 44 42 48 48 48 53 58 59 63 68 62 46 32
30 34 40 42 43 44 46 43 46 50 57 60 57 62 68 75 79 78 76 77 80 84 90 93 91 85 70 55 45 38 35 36 42 42 42 48 55 59 61 65 67 55 38 28
42 44 47 45 40 41 38 43 50 53 56 60 65 69 73 75 70 71 74 79 82 87 94 92 81 66 53 40 31 27 28 36 35 36 44 52 57 60 63 67 60 46 32 25
48 45 43 40 40 42 44 48 50 52 57 63 67 71 66 66 70 74 77 78 83 90 91 78 62 52 40 30 25 23 29 28 31 39 47 54 58 62 65 64 50 38 28 22
41 39 34 36 41 45 47 46 49 56 59 62 66 59 61 66 70 72 73 75 84 88 78 60 48 40 28 22 20 23 20 26 35 43 49 54 59 63 64 51 40 31 23 20
34 34 38 41 40 39 43 51 56 55 58 61 55 57 61 65 69 72 74 78 85 80 66 48 38 28 22 18 19 15 21 29 37 43 51 58 62 64 53 40 32 25 19 18
34 38 38 39 40 44 51 53 49 57 58 52 55 58 62 66 68 72 71 78 82 75 57 41 31 20 16 16 13 17 24 32 39 46 55 62 65 58 43 33 25 19 14 17
36 33 34 38 42 47 50 48 55 51 49 51 53 57 60 63 65 66 70 76 80 67 51 37 25 15 14 10 14 20 27 34 43 52 58 65 67 49 36 26 17 11 10 18
36 37 40 42 45 46 47 49 46 41 43 46 52 56 59 62 63 67 71 76 78 65 49 35 22 13 7 10 14 20 27 35 45 53 62 69 63 45 34 23 13 3 8 18
Wind_Direction
258 265 272 276 281 279 289 292 305 303 298 295 292 283 294 299 305 310 318 313 314 317 320 321 321 322 318 316 313 313 312 311 305 303 302 303 302 302 304 305 303 299 294 290
265 273 275 267 269 276 277 284 298 291 289 289 283 286 289 291 307 312 315 317 314 317 325 316 319 320 319 316 316 315 315 310 305 303 304 302 305 308 309 309 307 301 298 294
277 280 272 262 269 268 276 286 284 286 300 302 290 285 290 300 307 312 313 314 316 322 320 319 318 320 319 317 320 317 314 307 304 304 304 307 311 311 312 313 306 304 305 303
266 268 284 270 278 279 284 282 292 289 296 299 303 299 293 300 307 310 313 308 315 321 320 322 318 318 316 319 320 318 314 307 304 306 308 311 313 315 317 314 309 310 310 309
254 272 280 290 294 299 295 283 295 289 294 300 301 299 293 305 310 311 315 313 316 318 320 320 318 316 315 318 320 319 311 307 309 308 309 313 315 317 318 314 314 313 313 312
254 266 277 285 291 290 291 290 290 287 295 298 300 298 299 306 311 313 315 313 316 318 319 318 317 316 316 318 321 320 313 309 308 308 309 313 317 322 321 317 316 316 316 314
263 268 279 284 289 285 288 287 294 296 296 300 301 297 302 307 310 312 312 314 319 318 317 316 316 317 315 320 321 318 311 310 311 310 314 317 321 325 324 321 319 321 320 316
261 261 266 277 283 287 285 289 291 294 293 301 298 301 306 306 312 315 314 316 318 316 317 315 316 317 318 319 316 315 314 314 312 313 314 320 322 324 325 320 321 323 322 320
259 264 268 274 278 284 288 288 293 295 297 300 296 294 295 304 311 311 313 316 315 314 315 314 315 315 316 316 314 314 313 314 313 314 315 321 318 324 323 320 323 324 324 321
256 264 268 271 276 284 285 284 289 296 298 300 295 295 302 305 308 311 313 312 311 313 313 312 314 315 315 314 313 314 314 314 313 314 316 323 319 323 322 322 323 324 326 323
252 265 274 272 274 277 281 281 285 295 303 294 292 295 299 304 309 311 311 310 310 312 312 313 313 316 315 314 317 317 315 314 313 316 317 321 319 323 322 323 323 324 327 326
262 268 266 270 272 278 281 282 293 301 300 293 291 296 303 307 308 309 309 309 311 312 312 313 316 315 314 315 315 313 311 311 314 316 315 318 320 321 321 322 324 326 328 327
252 256 266 268 270 281 284 292 298 300 290 294 300 304 306 308 308 308 310 311 313 313 313 314 315 314 315 314 312 314 312 312 312 313 314 315 317 320 321 322 325 327 330 328
251 257 263 271 283 290 296 300 294 291 291 296 301 304 305 305 308 310 311 313 313 313 313 314 313 313 312 313 312 313 310 313 311 311 313 315 316 319 320 323 326 329 330 328
268 271 281 288 292 291 294 285 288 295 299 300 301 303 305 309 310 314 312 311 312 313 312 313 312 310 311 313 313 311 313 312 312 311 312 315 317 318 320 324 327 329 329 326
285 282 286 291 293 293 289 290 293 299 301 300 302 306 309 310 312 311 311 312 312 311 312 310 312 313 317 316 315 312 309 309 309 311 312 313 315 318 321 324 326 329 327 322
282 285 287 288 292 293 293 296 299 301 302 307 309 309 310 313 310 311 312 311 312 311 311 313 315 318 318 315 311 307 306 307 308 310 309 313 316 319 321 323 326 328 324 316
280 282 286 291 292 293 298 300 301 306 309 307 308 311 310 305 309 310 311 313 312 314 314 316 319 318 315 312 308 304 303 306 306 306 311 313 317 319 321 322 326 325 318 308
312 307 306 303 304 302 298 305 310 308 306 308 308 306 307 308 311 314 315 316 317 317 319 320 320 316 314 311 308 303 304 308 307 312 314 318 319 320 320 322 323 321 312 299
308 312 311 306 306 306 308 303 305 307 307 308 309 311 312 315 318 319 319 320 320 319 321 323 319 318 316 314 307 304 310 309 315 319 322 321 321 319 319 320 320 315 304 289
304 310 310 310 316 315 312 309 310 307 308 312 312 313 320 322 323 325 326 323 320 318 325 322 321 320 317 313 307 311 316 323 326 327 326 325 324 322 320 319 316 307 296 276
312 313 311 315 312 309 311 314 312 311 313 312 317 324 327 329 330 329 327 324 321 326 329 325 325 323 321 315 320 328 334 333 336 335 332 331 327 323 321 319 311 300 284 259
312 310 311 310 311 309 310 315 315 312 318 320 326 327 328 329 332 332 331 328 328 335 334 331 331 328 324 326 340 355 345 345 344 341 341 336 330 326 323 318 307 294 272 242
307 314 314 312 312 313 315 317 316 319 323 327 326 328 329 332 334 333 335 334 337 339 338 335 335 332 335 341 8 359 353 353 347 346 343 339 335 333 327 319 309 288 257 219
308 314 312 311 312 315 316 314 317 323 325 325 326 327 333 338 340 344 343 343 344 345 342 340 338 341 344 18 12 359 359 355 358 356 351 347 342 339 335 330 317 288 233 201
310 311 314 314 315 315 315 315 319 324 325 326 327 335 340 342 343 347 349 350 350 349 347 342 341 354 17 29 12 4 4 5 5 1 1 356 350 350 349 344 337 321 188 184
Height
10883 10883 10883 10883 10883 10880 10879 10877 10874 10874 10869 10866 10863 10857 10853 10846 10842 10834 10830 10822 10815 10808 10802 10793 10783 10775 10768 10759 10750 10741 10731 10720 10708 10699 10691 10684 10674 10665 10652 10636 10622 10608 10595 10585
10878 10879 10878 10879 10877 10876 10874 10870 10867 10866 10863 10860 10857 10851 10846 10841 10835 10827 10819 10811 10804 10796 10788 10778 10769 10762 10753 10744 10735 10725 10713 10701 10692 10683 10676 10667 10657 10644 10631 10616 10597 10583 10573 10565
10872 10873 10872 10873 10871 10871 10869 10866 10862 10861 10860 10856 10853 10848 10841 10837 10827 10819 10810 10801 10795 10789 10779 10767 10753 10746 10737 10729 10717 10707 10696 10686 10677 10668 10659 10648 10636 10624 10610 10594 10577 10566 10555 10545
10867 10868 10868 10866 10863 10864 10862 10860 10857 10857 10854 10851 10847 10845 10833 10827 10820 10812 10804 10795 10789 10780 10770 10758 10746 10736 10724 10714 10701 10691 10681 10670 10663 10654 10641 10630 10617 10601 10584 10570 10558 10546 10537 10528
10862 10863 10862 10859 10857 10857 10855 10852 10848 10844 10844 10843 10838 10835 10827 10818 10811 10801 10794 10788 10780 10768 10758 10746 10734 10725 10714 10704 10691 10679 10667 10657 10649 10638 10626 10614 10599 10585 10568 10552 10542 10530 10518 10509
10856 10857 10855 10852 10849 10848 10847 10843 10841 10837 10834 10832 10829 10824 10816 10808 10799 10790 10784 10774 10765 10755 10745 10735 10724 10713 10701 10691 10681 10667 10655 10645 10636 10625 10614 10600 10585 10567 10553 10540 10528 10515 10503 10490
10849 10848 10847 10844 10842 10842 10841 10837 10833 10829 10825 10824 10819 10814 10805 10796 10788 10778 10772 10764 10754 10743 10733 10722 10710 10699 10687 10674 10661 10649 10641 10633 10622 10611 10598 10583 10568 10551 10535 10524 10512 10499 10487 10475
10841 10838 10838 10836 10836 10833 10831 10828 10825 10825 10818 10814 10808 10803 10793 10784 10778 10769 10760 10750 10738 10727 10716 10705 10694 10683 10670 10659 10649 10637 10626 10616 10605 10594 10582 10566 10551 10535 10521 10509 10497 10483 10471 10457
10831 10829 10830 10831 10830 10827 10822 10818 10814 10813 10810 10807 10801 10795 10784 10774 10768 10759 10749 10737 10726 10714 10706 10695 10684 10673 10662 10648 10632 10622 10613 10602 10589 10577 10567 10555 10540 10524 10508 10495 10482 10469 10454 10438
10823 10823 10825 10823 10823 10819 10815 10810 10806 10801 10799 10796 10792 10784 10770 10763 10757 10747 10736 10726 10712 10701 10691 10680 10669 10657 10644 10633 10622 10610 10598 10585 10573 10562 10550 10538 10524 10510 10496 10482 10467 10454 10438 10421
10819 10817 10815 10816 10814 10811 10805 10800 10798 10792 10785 10783 10781 10773 10760 10753 10744 10733 10722 10710 10697 10684 10673 10664 10653 10639 10624 10609 10599 10588 10577 10566 10555 10544 10531 10519 10507 10495 10481 10470 10456 10440 10423 10407
10814 10810 10808 10805 10804 10801 10796 10791 10787 10782 10777 10769 10766 10761 10749 10740 10728 10720 10707 10696 10682 10668 10656 10644 10632 10618 10604 10589 10578 10569 10558 10548 10537 10527 10515 10502 10491 10480 10468 10457 10444 10429 10411 10396
10804 10804 10801 10796 10795 10793 10788 10783 10778 10773 10766 10758 10749 10743 10735 10725 10714 10704 10693 10680 10667 10652 10637 10624 10611 10596 10583 10573 10560 10554 10543 10532 10522 10512 10503 10491 10480 10468 10457 10445 10432 10418 10401 10387
10796 10795 10792 10789 10786 10784 10778 10773 10770 10766 10758 10751 10739 10730 10721 10712 10701 10689 10678 10664 10649 10634 10620 10606 10593 10578 10567 10557 10546 10536 10526 10516 10506 10498 10488 10477 10466 10454 10445 10434 10420 10407 10391 10380
10788 10786 10784 10782 10779 10776 10771 10764 10759 10753 10745 10739 10730 10720 10709 10698 10686 10673 10661 10648 10633 10618 10603 10588 10576 10564 10554 10542 10530 10519 10509 10498 10490 10481 10472 10462 10452 10443 10432 10422 10409 10398 10384 10375
10780 10779 10777 10774 10770 10766 10760 10756 10749 10742 10733 10725 10717 10708 10697 10685 10672 10660 10647 10633 10618 10602 10586 10573 10559 10545 10534 10520 10509 10500 10490 10483 10474 10466 10458 10450 10440 10431 10420 10411 10400 10389 10377 10369
10773 10770 10767 10763 10758 10753 10749 10743 10736 10728 10720 10711 10702 10694 10684 10672 10660 10647 10632 10617 10603 10588 10572 10555 10540 10525 10510 10496 10487 10479 10473 10467 10461 10455 10447 10438 10430 10421 10411 10400 10389 10378 10369 10363
10764 10761 10756 10752 10747 10741 10737 10730 10724 10716 10708 10699 10690 10681 10671 10662 10649 10635 10619 10604 10587 10571 10553 10536 10520 10503 10490 10477 10468 10462 10458 10455 10451 10445 10438 10429 10420 10411 10402 10390 10378 10367 10360 10355
10757 10751 10749 10743 10736 10731 10725 10719 10713 10706 10697 10688 10679 10670 10659 10649 10635 10619 10602 10585 10569 10551 10534 10517 10499 10482 10469 10460 10453 10449 10448 10444 10439 10434 10427 10419 10409 10399 10389 10378 10366 10356 10351 10348
10750 10743 10736 10732 10726 10721 10715 10711 10706 10697 10686 10677 10667 10657 10645 10632 10617 10601 10586 10568 10550 10532 10514 10496 10477 10464 10455 10448 10443 10441 10439 10436 10431 10426 10418 10408 10398 10387 10376 10364 10353 10345 10341 10339
10742 10735 10729 10722 10716 10711 10706 10701 10695 10686 10677 10667 10655 10643 10630 10616 10601 10585 10569 10554 10536 10517 10500 10479 10463 10452 10445 10440 10437 10435 10434 10430 10426 10419 10410 10399 10387 10373 10361 10349 10339 10333 10331 10330
10732 10727 10721 10716 10711 10704 10697 10691 10683 10675 10666 10655 10644 10631 10618 10604 10592 10578 10563 10545 10525 10506 10484 10465 10452 10444 10438 10435 10433 10432 10430 10427 10421 10413 10403 10391 10377 10361 10346 10335 10326 10321 10320 10320
10726 10720 10715 10710 10704 10697 10690 10682 10673 10664 10655 10644 10632 10623 10612 10599 10584 10568 10550 10531 10511 10491 10471 10456 10446 10440 10436 10432 10430 10430 10428 10423 10416 10408 10396 10382 10364 10347 10331 10321 10313 10310 10310 10312
10718 10714 10707 10701 10696 10688 10680 10672 10663 10653 10643 10634 10626 10616 10605 10591 10575 10559 10540 10520 10499 10478 10461 10449 10442 10437 10434 10431 10430 10429 10425 10419 10413 10402 10389 10372 10351 10331 10317 10308 10302 10300 10302 10305
10710 10706 10701 10695 10688 10681 10673 10665 10656 10647 10639 10630 10621 10611 10599 10585 10569 10552 10533 10513 10491 10471 10455 10445 10439 10435 10433 10432 10431 10429 10424 10418 10410 10398 10384 10362 10339 10321 10308 10300 10295 10294 10296 10300
10704 10699 10694 10688 10682 10674 10667 10660 10652 10644 10636 10628 10618 10605 10592 10579 10564 10548 10529 10510 10488 10467 10453 10443 10438 10435 10434 10433 10432 10430 10425 10418 10409 10398 10380 10357 10333 10316 10304 10297 10292 10292 10294 10299